{"data":{"norad_id":61674,"epoch":"2026-09-21T08:31:13.029024Z","epoch_age_seconds":114554,"freshness":"FRESH","line1":"1 61674U 24193P   26264.35501191  .00000119  00000+0  15595-4 0  9997","line2":"2 61674  53.1595 260.7601 0001280  85.8644 274.2504 15.31707391106505","mean_motion":15.31707391,"eccentricity":0.000128,"inclination_deg":53.1595,"raan_deg":260.7601,"arg_perigee_deg":85.8644,"mean_anomaly_deg":274.2504,"bstar":1.5595e-5,"rev_number":10650,"period_min":94.012734316041,"perigee_km":469.84130969256,"apogee_km":471.59461656312,"semimajor_km":6848.8549631278,"source":"CELESTRAK","updated_at":"2026-09-22T09:00:49.402476Z"}}